This is the latest recevied weather packets stored in our database for station/object DL4MGC-10. If no packets are shown the sender has not sent any weather packets the latest 10 day(s).
| Time | Temp. | Humidity | Pressure | Rain* | Wind** | Luminosity | Snow |
|---|---|---|---|---|---|---|---|
| 1788333127 | 18.89° C | 80% | 1021.8 hPa | - | - | - | - |
| 1788332227 | 17.22° C | 85% | 1021.9 hPa | - | - | - | - |
| 1788331327 | 17.22° C | 85% | 1021.8 hPa | - | - | - | - |
| 1788330427 | 16.11° C | 86% | 1021.8 hPa | - | - | - | - |
| 1788329527 | 16.67° C | 84% | 1021.8 hPa | - | - | - | - |
| 1788328627 | 15° C | 89% | 1021.8 hPa | - | - | - | - |
| 1788327727 | 13.89° C | 92% | 1021.7 hPa | - | - | - | - |
| 1788326827 | 13.33° C | 95% | 1021.5 hPa | - | - | - | - |
| 1788325926 | 13.33° C | 95% | 1021.4 hPa | - | - | - | - |
| 1788325026 | 13.33° C | 95% | 1021.4 hPa | - | - | - | - |
| 1788324126 | 12.78° C | 96% | 1021.4 hPa | - | - | - | - |
| 1788323226 | 13.89° C | 93% | 1021.5 hPa | - | - | - | - |
| 1788322325 | 13.33° C | 95% | 1021.4 hPa | - | - | - | - |
| 1788321425 | 14.44° C | 92% | 1021.3 hPa | - | - | - | - |
| 1788320525 | 14.44° C | 91% | 1021.4 hPa | - | - | - | - |
| 1788319625 | 14.44° C | 92% | 1021.4 hPa | - | - | - | - |
| 1788318725 | 15° C | 91% | 1021.5 hPa | - | - | - | - |
| 1788317824 | 14.44° C | 92% | 1021.4 hPa | - | - | - | - |
| 1788316924 | 15° C | 91% | 1021.5 hPa | - | - | - | - |
| 1788316024 | 14.44° C | 96% | 1021.5 hPa | - | - | - | - |
| 1788315124 | 15° C | 95% | 1021.4 hPa | - | - | - | - |
| 1788314224 | 15.56° C | 92% | 1021.4 hPa | - | - | - | - |
| 1788313324 | 16.11° C | 89% | 1021.5 hPa | - | - | - | - |
| 1788312424 | 16.11° C | 89% | 1021.6 hPa | - | - | - | - |
| 1788311524 | 16.11° C | 89% | 1021.7 hPa | - | - | - | - |
* Rain since midnight (hover to see other rain measurements)
** Current wind speed in m/s (hover to see current wind gust speed)